Other Public Products
Issued by NWS Grand Forks, ND

Home | Current Version | Previous Version | Text Only | Print | Product List | Glossary On
Versions: 1 2 3 4 5 6 7 8 9 10 11 12 13 14 15 16 17 18 19 20 21 22 23 24 25 26 27 28 29 30 31 32 33 34 35 36 37 38 39 40 41 42 43 44 45 46 47 48 49 50
000
FPUS83 KFGF 241210
OPUFGF
PRAIRIE TO PINES WEATHER ROUNDUP
NATIONAL WEATHER SERVICE EASTERN NORTH DAKOTA/GRAND FORKS ND
700 AM CDT WED MAY 24 2017

 **SATELLITE DATA USED TO AUGMENT SKY COVER AT AUTOMATED STATIONS**
 *****  WEATHER ACROSS EASTERN NORTH DAKOTA  *****

CITY           SKY/WX    TMP DP  RH WIND       PRES   REMARKS
GRAND FORKS    FAIR      44  42  93 SE3       29.84F
6HR MIN TEMP:  37; 6HR MAX TEMP:  47;

GRAND FORKS AF FAIR      42  42  98 CALM      29.84S
GRAND CITY NWS NOT AVBL
BUXTON         NOT AVBL
DEVILS LAKE    FAIR      46  42  86 CALM      29.82F
6HR MIN TEMP:  40; 6HR MAX TEMP:  48;

FARGO          FAIR      43  42  97 CALM      29.84S
6HR MIN TEMP:  36; 6HR MAX TEMP:  44;

WAHPETON ARPT  CLOUDY    46  43  87 CALM      29.84S
$$

 *****  WEATHER ACROSS CENTRAL AND WESTERN NORTH DAKOTA  *****

CITY           SKY/WX    TMP DP  RH WIND       PRES   REMARKS
JAMESTOWN      FAIR      39  39 100 SE3       29.81F FOG
6HR MIN TEMP:  33; 6HR MAX TEMP:  40;

BISMARCK       FAIR      38  35  89 CALM      29.81F
6HR MIN TEMP:  34; 6HR MAX TEMP:  44;

MINOT          FAIR      52  38  58 S14G22    29.74F
6HR MIN TEMP:  51; 6HR MAX TEMP:  55;

MINOT AFB      FAIR      50  38  62 S14       29.73F
6HR MIN TEMP:  48; 6HR MAX TEMP:  54;

GARRISON         N/A     45  39  79 S10       29.76F
6HR MIN TEMP:  42; 6HR MAX TEMP:  50;

WILLISTON      FAIR      53  37  54 SE21G28   29.64F
6HR MIN TEMP:  52; 6HR MAX TEMP:  58;

DICKINSON      FAIR      44  34  67 S18       29.70F
6HR MIN TEMP:  40; 6HR MAX TEMP:  45;

HETTINGER      FAIR      42  34  73 SE10      29.76F
6HR MIN TEMP:  40; 6HR MAX TEMP:  47;

$$

 *****  OTHER OBSERVATIONS NORTHEAST NORTH DAKOTA  *****

CITY           SKY/WX    TMP DP  RH WIND       PRES   REMARKS
WALHALLA       NOT AVBL
LANGDON        FAIR      45  43  93 S8        29.82F
CAVALIER       FAIR      45  41  87 CALM      29.83S
GRAFTON        FAIR      41  41 100 CALM      29.86S
CANDO          NOT AVBL
FORT TOTTEN      N/A     44  40  85 SE3       29.95S
ROLLA          FAIR      45  39  81 S10       29.80S
RUGBY          NOT AVBL
 ***** THE ABOVE OBSERVATIONS ARE NON NWS ARE NOT QUALITY
        CONTROLLED AND MAY MIS-REPORT RAIN FOR SNOW...
$$

 *****  OTHER OBSERVATIONS SOUTHEAST NORTH DAKOTA *****

CITY           SKY/WX    TMP DP  RH WIND       PRES   REMARKS
COOPERSTOWN    FAIR      39  39 100 CALM      29.83F FOG
VALLEY CITY    FAIR      39  39 100 CALM      29.85S FOG
OAKES          NOT AVBL
GWINNER        CLOUDY    41  41 100 MISG      29.84S
BUFFALO        NOT AVBL
WYNDMERE         N/A     45  45 100 CALM        N/A
 ***** THE ABOVE OBSERVATIONS ARE NON NWS ARE NOT QUALITY
       CONTROLLED AND MAY MIS-REPORT RAIN FOR SNOW...
$$

  *****  WEATHER ACROSS NORTHERN MINNESOTA  *****

CITY           SKY/WX    TMP DP  RH WIND       PRES   REMARKS
FLAG ISLAND    FAIR      48  41  76 CALM      29.84S
WARROAD        FAIR      43  39  87 CALM      29.86S
ROSEAU         FAIR      43  37  81 CALM      29.86S
HALLOCK        FAIR      46  43  87 SE6       29.84S
THF RVR FALLS  FAIR      42  41  96 E3        29.86S
6HR MIN TEMP:  38; 6HR MAX TEMP:  45;

HALSTAD          N/A     42  41  97 CALM        N/A
FOSSTON        FAIR      39  37  93 CALM      29.85F
BAUDETTE       FAIR      38  38 100 CALM      29.86S
6HR MIN TEMP:  32; 6HR MAX TEMP:  39;

WASKISH        FAIR      43  41  93 CALM      29.85S
CROOKSTON      FAIR      43  41  93 CALM      29.86S
$$
  *****  WEATHER ACROSS CENTRAL AND WEST MINNESOTA  *****

CITY           SKY/WX    TMP DP  RH WIND       PRES   REMARKS
BEMIDJI        FAIR      36  36 100 CALM      29.85S FOG
PARK RAPIDS    FAIR      45  39  79 E5        29.83F
6HR MIN TEMP:  40; 6HR MAX TEMP:  48;

WADENA         FAIR      45  43  93 NE3       29.83F
DETROIT LAKES  FAIR      45  41  87 CALM      29.85S
MOORHEAD       FAIR      39  39 100 CALM      29.85S FOG
FERGUS FALLS   CLOUDY    46  46 100 CALM      29.83S
ELBOW LAKE     CLOUDY    47  46  93 E3        29.83F
6HR MIN TEMP:  43; 6HR MAX TEMP:  47;

MORRIS MN      CLOUDY    46  46 100 N3        29.82S
STAPLES        CLOUDY    45  45 100 CALM      29.84S
WHEATON        CLOUDY    46  45  93 CALM      29.86R
$$
  *****  WEATHER ELSEWHERE ACROSS MINNESOTA  *****

CITY           SKY/WX    TMP DP  RH WIND       PRES   REMARKS
DULUTH         FAIR      47  43  86 NE8       29.82S
6HR MIN TEMP:  45; 6HR MAX TEMP:  47;

INTRNTL FALLS  FAIR      40  37  89 CALM      29.86S
6HR MIN TEMP:  30; 6HR MAX TEMP:  40;

ELY            FAIR      43  39  87 CALM      29.85F
CLOQUET        FAIR      46  43  87 NE7       29.83S
BRAINERD       CLOUDY    49  47  93 N6        29.84S
6HR MIN TEMP:  47; 6HR MAX TEMP:  49;

HIBBING        FAIR      44  40  85 N3        29.85S
6HR MIN TEMP:  33; 6HR MAX TEMP:  48;

ALEXANDRIA     CLOUDY    49  46  90 NE7       29.83F
6HR MIN TEMP:  47; 6HR MAX TEMP:  49;

SAINT CLOUD    CLOUDY    49  45  86 N7        29.82S
6HR MIN TEMP:  46; 6HR MAX TEMP:  50;

MINNEAPOLIS    PTSUNNY   48  43  82 N12       29.78S
6HR MIN TEMP:  46; 6HR MAX TEMP:  51;

$$

  *****  WEATHER ACROSS SOUTH DAKOTA  *****

CITY           SKY/WX    TMP DP  RH WIND       PRES   REMARKS
SIOUX FALLS    PTSUNNY   45  44  97 NE5       29.81F
6HR MIN TEMP:  43; 6HR MAX TEMP:  47;

BROOKINGS      CLOUDY    44  43  96 CALM      29.82S
WATERTOWN      CLOUDY    43  42  97 NW3       29.82S
6HR MIN TEMP:  36; 6HR MAX TEMP:  44;

HURON          FAIR      39  38  96 CALM      29.83F FOG
6HR MIN TEMP:  33; 6HR MAX TEMP:  38;

SISSETON         N/A     46  45  96 CALM      29.83S
ABERDEEN       FAIR      39  35  86 CALM      29.83F FOG
6HR MIN TEMP:  36; 6HR MAX TEMP:  41;

MITCHELL       FAIR      41  40  96 NW5       29.84F FOG
PIERRE         FAIR      35  32  88 CALM      29.82F
6HR MIN TEMP:  34; 6HR MAX TEMP:  45;

MOBRIDGE       FOG       40  37  89 CALM      29.79F VSB<1/4
RAPID CITY     FAIR      38  34  85 S9        29.78F
6HR MIN TEMP:  37; 6HR MAX TEMP:  43;

$$

  *****  SOME WEATHER IN NEARBY STATES *****

CITY           SKY/WX    TMP DP  RH WIND       PRES   REMARKS
GLASGOW MT     FAIR      55  36  48 SE21G29   29.44F
6HR MIN TEMP:  55; 6HR MAX TEMP:  58;

GREAT FALLS MT FAIR      63  41  44 SW15G31   29.43F
6HR MIN TEMP:  58; 6HR MAX TEMP:  67;

CHEYENNE WY    FAIR      42  32  67 SW12      29.86F
6HR MIN TEMP:  35; 6HR MAX TEMP:  42;

SCOTTSBLUFF NE FAIR      38  34  85 E10       29.82F
6HR MIN TEMP:  38; 6HR MAX TEMP:  45;

OMAHA NE       FAIR      49  44  83 N13       29.77R
6HR MIN TEMP:  49; 6HR MAX TEMP:  51;

DES MOINES IA  CLOUDY    53  51  93 N10       29.67S
6HR MIN TEMP:  51; 6HR MAX TEMP:  53; 6HR PCP:  0.16;

DAVENPORT IA   CLOUDY    51  51 100 NE9       29.64R FOG
6HR MIN TEMP:  46; 6HR MAX TEMP:  51;

CHICAGO IL     CLOUDY    54  51  90 N13       29.58F
6HR MIN TEMP:  53; 6HR MAX TEMP:  55; 6HR PCP:  0.18;

EAU CLAIRE WI  CLOUDY    48  43  82 N8        29.75R
6HR MIN TEMP:  48; 6HR MAX TEMP:  50;

LA CROSSE WI   CLOUDY    53  50  89 N7        29.71S
6HR MIN TEMP:  52; 6HR MAX TEMP:  53; 6HR PCP: TRACE;

$$

  *****  SOME NATIONAL WEATHER *****

CITY           SKY/WX    TMP DP  RH WIND       PRES   REMARKS
LA GUARDIA NY  CLOUDY    59  53  80 NE8       29.73F
6HR MIN TEMP:  57; 6HR MAX TEMP:  61; 6HR PCP:  0.03;



USA.gov is the U.S. government's official web portal to all federal, state and local government web resources and services.